Albert Lea, MN

3:31 PM CDT on May 25, 2017 (GMT -0500)
Albert Lea Municipal

Weather History for KAEL - September, 2013

Change the Weather History Date:

Friday, September 20, 2013

  Actual Average Record
Temperature  
Mean Temperature 57 °F -  
Max Temperature 64 °F 67 °F 87 °F (2005)
Min Temperature 48 °F 46 °F 33 °F (2006)
Degree Days  
Heating Degree Days 8    
Growing Degree Days 7 (Base 50)    
Moisture  
Dew Point 51 °F    
Average Humidity 79    
Maximum Humidity 100    
Minimum Humidity 59    
Precipitation  
Precipitation 0.00 in - - ()
Sea Level Pressure  
Sea Level Pressure 29.90 in    
Wind  
Wind Speed 8 mph (WNW)    
Max Wind Speed 15 mph    
Max Gust Speed 23 mph    
Visibility 9 miles    
Events Rain    
Averages and records for this station are not official NWS values.
T = Trace of Precipitation, MM = Missing Value Source: NWS Daily Summary

Daily Weather History Graph

Daily Weather History Graph

Search for Another Location

Airport or City:

Trip Planner

Search our weather history database for the weather conditions in past years. The results will help you decide how hot, cold, wet, or windy it might be!

Date:

Astronomy

Sep. 20, 2013 Rise Set
Actual Time 6:58 AM CDT 7:14 PM CDT
Civil Twilight 6:30 AM CDT 7:42 PM CDT
Nautical Twilight 5:56 AM CDT 8:16 PM CDT
Astronomical Twilight 5:21 AM CDT 8:50 PM CDT
Moon 7:43 PM CDT (9/20) 8:17 AM CDT (9/20)
Length of Visible Light 13h 12m
Length of Day
12h 15m
Full, 98% of the Moon is Illuminated
Sep 20
Full
Sep 26
Last Quarter
Oct 4
New
Oct 11
First Quarter
Oct 18
Full

Hourly Weather History & Observations

Time (CDT) Temp. Dew Point Humidity Pressure Visibility Wind Dir Wind Speed Gust Speed Precip Events Conditions
12:11 AM 64.4 °F 53.6 °F 68% 29.84 in 10.0 mi WNW 9.2 mph 16.1 mph N/A   Overcast
12:31 AM 62.6 °F 53.6 °F 72% 29.85 in 10.0 mi WNW 8.1 mph - N/A   Overcast
12:52 AM 62.6 °F 53.6 °F 72% 29.85 in 10.0 mi WNW 6.9 mph - N/A   Mostly Cloudy
1:11 AM 62.6 °F 53.6 °F 72% 29.86 in 10.0 mi WNW 9.2 mph - N/A   Mostly Cloudy
1:31 AM 62.6 °F 53.6 °F 72% 29.86 in 10.0 mi WNW 8.1 mph - N/A   Overcast
1:52 AM 62.6 °F 53.6 °F 72% 29.87 in 10.0 mi WNW 6.9 mph - N/A   Overcast
2:11 AM 60.8 °F 53.6 °F 77% 29.86 in 10.0 mi WNW 9.2 mph - N/A   Mostly Cloudy
2:31 AM 60.8 °F 53.6 °F 77% 29.87 in 10.0 mi WNW 8.1 mph - N/A   Mostly Cloudy
2:52 AM 60.8 °F 53.6 °F 77% 29.87 in 10.0 mi WNW 11.5 mph 18.4 mph N/A   Overcast
3:11 AM 60.8 °F 53.6 °F 77% 29.87 in 10.0 mi WNW 8.1 mph - N/A   Overcast
3:31 AM 59.0 °F 53.6 °F 82% 29.87 in 10.0 mi WNW 8.1 mph - N/A   Overcast
3:51 AM 57.2 °F 53.6 °F 88% 29.87 in 10.0 mi WNW 8.1 mph - N/A   Mostly Cloudy
4:11 AM 57.2 °F 51.8 °F 82% 29.87 in 10.0 mi WNW 10.4 mph 16.1 mph N/A   Overcast
4:31 AM 57.2 °F 51.8 °F 82% 29.87 in 10.0 mi West 10.4 mph 17.3 mph N/A   Scattered Clouds
4:51 AM 55.4 °F 51.8 °F 88% 29.87 in 10.0 mi West 9.2 mph 16.1 mph N/A   Clear
5:11 AM 55.4 °F 51.8 °F 88% 29.87 in 10.0 mi WNW 8.1 mph - N/A   Clear
5:31 AM 53.6 °F 50.0 °F 88% 29.87 in 10.0 mi West 5.8 mph - N/A   Clear
5:51 AM 53.6 °F 50.0 °F 88% 29.88 in 10.0 mi West 5.8 mph - N/A   Mostly Cloudy
6:11 AM 53.6 °F 50.0 °F 88% 29.88 in 10.0 mi West 4.6 mph - N/A   Mostly Cloudy
6:31 AM 53.6 °F 50.0 °F 88% 29.88 in 10.0 mi West 6.9 mph - N/A   Mostly Cloudy
6:51 AM 53.6 °F 50.0 °F 88% 29.89 in 10.0 mi West 9.2 mph - N/A   Mostly Cloudy
7:11 AM 53.6 °F 50.0 °F 88% 29.89 in 10.0 mi West 8.1 mph - N/A   Overcast
7:31 AM 53.6 °F 51.8 °F 94% 29.90 in 10.0 mi West 5.8 mph - N/A   Overcast
7:51 AM 53.6 °F 51.8 °F 94% 29.90 in 5.0 mi WNW 6.9 mph - N/A   Overcast
8:11 AM 53.6 °F 51.8 °F 94% 29.90 in 3.0 mi West 8.1 mph - N/A   Overcast
8:31 AM 53.6 °F 51.8 °F 94% 29.90 in 10.0 mi West 8.1 mph 16.1 mph N/A   Overcast
8:51 AM 53.6 °F 51.8 °F 94% 29.90 in 3.0 mi West 6.9 mph - N/A   Overcast
9:11 AM 55.4 °F 51.8 °F 88% 29.90 in 10.0 mi WNW 8.1 mph - N/A   Overcast
9:31 AM 55.4 °F 51.8 °F 88% 29.90 in 7.0 mi WNW 8.1 mph 18.4 mph N/A   Overcast
9:51 AM 55.4 °F 53.6 °F 94% 29.91 in 2.5 mi West 10.4 mph - N/A   Overcast
10:11 AM 55.4 °F 53.6 °F 94% 29.91 in 5.0 mi West 9.2 mph - N/A   Overcast
10:31 AM 55.4 °F 53.6 °F 94% 29.91 in 3.0 mi WNW 10.4 mph 17.3 mph N/A   Overcast
10:51 AM 57.2 °F 53.6 °F 88% 29.92 in 2.5 mi West 8.1 mph 16.1 mph N/A   Overcast
11:11 AM 57.2 °F 55.4 °F 94% 29.92 in 2.5 mi WNW 12.7 mph 17.3 mph N/A Rain Light Rain
11:31 AM 55.4 °F 55.4 °F 100% 29.92 in 5.0 mi WNW 9.2 mph 16.1 mph N/A   Overcast
11:51 AM 57.2 °F 53.6 °F 88% 29.92 in 7.0 mi WNW 9.2 mph 20.7 mph N/A   Overcast
12:11 PM 57.2 °F 53.6 °F 88% 29.92 in 10.0 mi WNW 10.4 mph 18.4 mph N/A   Overcast
12:31 PM 60.8 °F 51.8 °F 72% 29.91 in 10.0 mi WNW 10.4 mph 19.6 mph N/A   Overcast
12:51 PM 60.8 °F 51.8 °F 72% 29.91 in 10.0 mi West 15.0 mph 21.9 mph N/A   Overcast
1:11 PM 59.0 °F 51.8 °F 77% 29.91 in 10.0 mi WNW 8.1 mph 20.7 mph N/A   Overcast
1:31 PM 62.6 °F 50.0 °F 63% 29.90 in 10.0 mi NW 12.7 mph 23.0 mph N/A   Mostly Cloudy
1:51 PM 62.6 °F 50.0 °F 63% 29.90 in 10.0 mi WNW 6.9 mph 19.6 mph N/A   Mostly Cloudy
2:11 PM 62.6 °F 48.2 °F 59% 29.90 in 10.0 mi WNW 10.4 mph 18.4 mph N/A   Overcast
2:31 PM 62.6 °F 50.0 °F 63% 29.90 in 10.0 mi WNW 9.2 mph 19.6 mph N/A   Overcast
2:51 PM 62.6 °F 50.0 °F 63% 29.89 in 10.0 mi WNW 11.5 mph 21.9 mph N/A   Mostly Cloudy
3:11 PM 64.4 °F 50.0 °F 59% 29.90 in 10.0 mi WNW 10.4 mph 21.9 mph N/A   Mostly Cloudy
3:31 PM 64.4 °F 50.0 °F 59% 29.90 in 10.0 mi West 12.7 mph 21.9 mph N/A   Mostly Cloudy
3:51 PM 62.6 °F 48.2 °F 59% 29.90 in 10.0 mi WNW 13.8 mph 20.7 mph N/A   Scattered Clouds
4:11 PM 62.6 °F 48.2 °F 59% 29.90 in 10.0 mi WNW 11.5 mph 19.6 mph N/A   Scattered Clouds
4:31 PM 62.6 °F 48.2 °F 59% 29.90 in 10.0 mi WNW 10.4 mph 20.7 mph N/A   Clear
4:51 PM 60.8 °F 48.2 °F 63% 29.91 in 10.0 mi WNW 10.4 mph 17.3 mph N/A   Mostly Cloudy
5:11 PM 60.8 °F 48.2 °F 63% 29.91 in 10.0 mi West 8.1 mph 16.1 mph N/A   Overcast
5:31 PM 60.8 °F 48.2 °F 63% 29.91 in 10.0 mi WNW 9.2 mph 16.1 mph N/A   Overcast
5:51 PM 60.8 °F 48.2 °F 63% 29.91 in 10.0 mi West 10.4 mph 18.4 mph N/A   Overcast
6:11 PM 60.8 °F 48.2 °F 63% 29.91 in 10.0 mi WNW 9.2 mph 18.4 mph N/A   Mostly Cloudy
6:31 PM 59.0 °F 48.2 °F 67% 29.91 in 10.0 mi WNW 8.1 mph 18.4 mph N/A   Scattered Clouds
6:51 PM 57.2 °F 48.2 °F 72% 29.92 in 10.0 mi WNW 6.9 mph - N/A   Scattered Clouds
7:11 PM 55.4 °F 48.2 °F 77% 29.92 in 10.0 mi WNW 5.8 mph - N/A   Scattered Clouds
7:31 PM 55.4 °F 48.2 °F 77% 29.93 in 10.0 mi WNW 10.4 mph - N/A   Scattered Clouds
7:51 PM 55.4 °F 48.2 °F 77% 29.94 in 10.0 mi WNW 6.9 mph - N/A   Scattered Clouds
8:11 PM 53.6 °F 48.2 °F 82% 29.95 in 10.0 mi NW 4.6 mph - N/A   Scattered Clouds
8:31 PM 53.6 °F 48.2 °F 82% 29.95 in 10.0 mi WNW 4.6 mph - N/A   Mostly Cloudy
8:51 PM 53.6 °F 48.2 °F 82% 29.95 in 10.0 mi WNW 4.6 mph - N/A   Scattered Clouds
9:11 PM 51.8 °F 46.4 °F 82% 29.95 in 10.0 mi WNW 4.6 mph - N/A   Clear
9:31 PM 51.8 °F 46.4 °F 82% 29.95 in 10.0 mi WNW 4.6 mph - N/A   Clear
9:51 PM 51.8 °F 46.4 °F 82% 29.96 in 10.0 mi WNW 3.5 mph - N/A   Mostly Cloudy
10:11 PM 51.8 °F 46.4 °F 82% 29.96 in 10.0 mi West 3.5 mph - N/A   Mostly Cloudy
10:31 PM 51.8 °F 46.4 °F 82% 29.96 in 10.0 mi West 3.5 mph - N/A   Mostly Cloudy
10:51 PM 50.0 °F 46.4 °F 87% 29.96 in 10.0 mi West 4.6 mph - N/A   Scattered Clouds
11:11 PM 50.0 °F 46.4 °F 87% 29.96 in 10.0 mi WNW 4.6 mph - N/A   Clear
11:31 PM 50.0 °F 46.4 °F 87% 29.96 in 10.0 mi West 3.5 mph - N/A   Clear
11:51 PM 48.2 °F 46.4 °F 93% 29.96 in 10.0 mi West 3.5 mph - N/A   Scattered Clouds